Content
SEND FEEDBACK

Daily
Averages
Monthly
Summary
Mexico

CANCUN, QUINTANA ROO


Home > North America > Mexico > Quintana Roo
Elevation: 30 feet     Latitude: 21 09N     Longitude: 086 49W

WEATHER
 
SELECT A DAY
Number of Records: 163,931;   Date Range: 1/1/95 - 8/31/14
 
SHARE

PRINT THIS DATA

[ ← Previous Day ]
WEATHER ALMANAC - JANUARY 19, 2013
[ Next Day → ]
[ °C ]   °F
Weather ElementAverageHighLow
Temperature69.7 °F77 °F (10:48 am)60.8 °F (6:43 am)
Dewpoint61.4 °F62.6 °F (3:40 am)59 °F (6:43 am)
Humidity76 %94 % (3:40 am)57 % (10:48 am)
Barometer30.14 in30.20 in (8:46 am)30.08 in (11:46 pm)
Wind Speed5.1 mph9.2 mph (9:41 am)
Weather ElementAverage
Visibility6.9 mi
Wind DirectionWSW (250.9 °)

Weather ElementTotal
Precipitation---
Cooling Degree Days3.9 (Base 65)
Growing Degree Days18.9 (Base 50)
Averaged from 23 records on January 19, 2013
WEATHER CONDITIONS BREAKOUT
WIND DIRECTION BREAKOUT
WEATHER BY HOUR - JANUARY 19, 2013
[ °C ]   °F
Local TimeTemperatureDewpointHumidityBarometerVisibilityWind DirectionWind SpeedGust SpeedPrecipitationEventsConditions
1:44 AM66.2 °F60.8 °F83 %30.15 in7.0 miWNW (300°)3.5 mphMostly Cloudy
2:46 AM66.2 °F60.8 °F83 %30.13 in7.0 miWest (270°)2.3 mphMostly Cloudy
3:40 AM64.4 °F62.6 °F94 %30.14 in7.0 miSSW (210°)2.3 mphMostly Cloudy
4:44 AM62.6 °F60.8 °F94 %30.14 in7.0 miWSW (240°)2.3 mphMostly Cloudy
5:43 AM62.6 °F60.8 °F94 %30.13 in7.0 miWNW (290°)3.5 mphScattered Clouds
6:43 AM60.8 °F59.0 °F94 %30.17 in7.0 miNW (310°)4.6 mphScattered Clouds
7:45 AM66.2 °F62.6 °F88 %30.18 in7.0 miNNW (330°)4.6 mphClear
8:46 AM73.4 °F62.6 °F69 %30.20 in7.0 miNorth (350°)6.9 mphPartly Cloudy
9:41 AM75.2 °F62.6 °F65 %30.19 in7.0 miNNW (340°)9.2 mphScattered Clouds
10:48 AM77.0 °F60.8 °F57 %30.18 in7.0 miNNE (20°)9.2 mphMostly Cloudy
11:40 AM77.0 °F60.8 °F57 %30.16 in7.0 miNNE (20°)8.1 mphMostly Cloudy
12:44 PM75.2 °F62.6 °F65 %30.12 in7.0 miNorth (10°)5.8 mphOvercast
1:43 PM75.2 °F62.6 °F65 %30.10 in7.0 miNorth (10°)6.9 mphOvercast
2:44 PM73.4 °F62.6 °F69 %30.10 in7.0 miNorth (360°)8.1 mphOvercast
3:44 PM73.4 °F62.6 °F69 %30.10 in7.0 miNorth (350°)5.8 mphOvercast
4:44 PM73.4 °F60.8 °F65 %30.10 in7.0 miNorth (10°)5.8 mphOvercast
5:47 PM71.6 °F60.8 °F69 %30.11 in7.0 miNorth (350°)3.5 mphOvercast
6:41 PM69.8 °F60.8 °F73 %30.12 in7.0 miNNW (340°)2.3 mphOvercast
7:43 PM69.8 °F60.8 °F73 %30.14 in7.0 miNNW (340°)2.3 mphOvercast
8:45 PM68.0 °F60.8 °F78 %30.14 in7.0 miNW (320°)3.5 mphOvercast
9:48 PM68.0 °F62.6 °F83 %30.14 in7.0 miNW (320°)5.8 mphOvercast
10:47 PM68.0 °F60.8 °F78 %30.11 in6.0 miNW (320°)5.8 mphOvercast
11:46 PM66.2 °F60.8 °F83 %30.08 in6.0 miNorth (360°)5.8 mphOvercast
Hourly data recorded from MMUN, located miles away from Cancun, Quintana Roo







STORIES FROM OUR PARTNERS